User: anonymous   Login
Location: Unspecified
(0.0000°N, 0.0000°E)
Time: 10:05:02
(UTC+00:00)
Language:

USA 186 - Orbit

View from above orbital plane
View from above orbital plane
View from above satellite
View from above satellite

Ground track
Ground track

The orbit data is extracted from the following two-line orbital elements,

1 28888U 05042A   16151.09494963 0.00038000  00000-0  14940-3 0    08
2 28888  96.8849 189.5323 0130390 123.5838 236.4161 15.74734362    02
Epoch (UTC): 30 May 2016 02:16:43
Eccentricity: 0.0130390
inclination: 96.8849°
perigee height: 258 km
apogee height: 433 km
right ascension of ascending node: 189.5323°
argument of perigee: 123.5838°
revolutions per day: 15.74734362
mean anomaly at epoch: 236.4161°
orbit number at epoch: 0

The dashed part of the orbit path shows where the satellite is in the earth's shadow,  

DLR